Weather in Amundsen-Scott S. P. Station

Arctic and Antarctic     84°59′59″S   54°28′51″W
temp.,
°C
wind,
m/s
gust,
m/s
humid.,
%
clouds,
%
prec.,
mm/h
press.,
hPa
HPBL,
m
21 april, wed
wed2100:00−35ese7109494 0.1 987167
03:00−38ese7129320 0.0 98797
06:00−40ese813915 0.0 98698
09:00−40ese8139021 0.0 985101
12:00−41ese812915 0.0 98495
15:00−41ese812935 0.0 98395
18:00−40ese812925 0.0 98292
21:00−41ese812915 0.0 98288
22 april, thu
thu2200:00−41ese711935 0.0 98282
03:00−41e7119514 0.0 98375
06:00−41e7119618 0.0 98475
09:00−41e799869 0.0 98463
12:00−38e79100100 0.0 98363
15:00−35e6898100 0.0 98172
18:00−33e6997100 0.1 980103
21:00−33e71096100 0.1 981114
23 april, fri
fri2300:00−34e71195100 0.1 981114
03:00−35ese8139136 0.0 982112
06:00−37ese814925 0.0 983106
09:00−36ese914905 0.0 982112
12:00−36ese914925 0.0 982110
15:00−35ese9149328 0.0 980113
18:00−34ese8129444 0.0 97997
21:00−31ese7119589 0.0 97893
24 april, sat
sat2400:00−30ese71095100 0.0 97794
03:00−29ese61096100 0.0 97885
06:00−28ese61097100 0.1 978105
09:00−28ese6997100 0.0 97988
12:00−26e61096100 0.1 979116
15:00−27e6998100 0.1 98097
18:00−26e6998100 0.2 981116
21:00−26ene5998100 0.1 983117
25 april, sun
sun2500:00−26ene61098100 0.3 984126
03:00−27ene5999100 0.1 986109
06:00−27ene6998100 0.3 987123
09:00−29e6998100 0.1 988122
12:00−29e61097100 0.2 988141
15:00−30e71096100 0.1 988147
18:00−30e71096100 0.2 988153
21:00−30e6998100 0.1 987134